| time (UTC) | temp F | wind direction | speed MPH | gust MPH | rain 1hr in | rain 24hr in | rain mn in | humidity % | barometer mb |
| 20260502151553 | 61 | 332 | 9.0 | 18.0 | 0.00 | 0.16 | 0.01 | 61 | 1023.3 |
| 20260502130106 | 48 | 69 | 3.0 | 9.0 | 0.00 | 0.23 | 0.01 | 88 | 1022.1 |
| 20260502123052 | 46 | 71 | 0.0 | 3.0 | 0.00 | 0.35 | 0.01 | 88 | 1021.7 |
| 20260502121550 | 46 | 71 | 0.0 | 3.0 | 0.00 | 0.35 | 0.01 | 89 | 1021.5 |
| 20260502114545 | 46 | 71 | 1.0 | 4.0 | 0.00 | 0.47 | 0.01 | 88 | 1021.1 |
| 20260502113049 | 46 | 71 | 2.0 | 4.0 | 0.00 | 0.47 | 0.01 | 88 | 1020.7 |
| 20260502111543 | 46 | 73 | 1.0 | 5.0 | 0.00 | 0.47 | 0.01 | 88 | 1020.6 |
| 20260502110039 | 46 | 72 | 2.0 | 6.0 | 0.01 | 0.47 | 0.01 | 88 | 1020.3 |
| 20260502104536 | 46 | 72 | 1.0 | 3.0 | 0.01 | 0.47 | 0.01 | 88 | 1020.3 |
| 20260502103035 | 46 | 72 | 2.0 | 6.0 | 0.01 | 0.47 | 0.01 | 88 | 1020.3 |
| 20260502101534 | 46 | 73 | 1.0 | 3.0 | 0.01 | 0.47 | 0.01 | 88 | 1020.1 |
| 20260502091526 | 47 | 72 | 0.0 | 2.0 | 0.00 | 0.54 | 0.00 | 88 | 1019.3 |
| 20260502071509 | 49 | 94 | 6.0 | 14.0 | 0.00 | 0.54 | 0.00 | 87 | 1017.8 |
| 20260502070019 | 50 | 51 | 5.0 | 13.0 | 0.00 | 0.54 | 0.00 | 87 | 1018.3 |
| 20260502064506 | 50 | 161 | 3.0 | 8.0 | 0.00 | 0.56 | 0.00 | 87 | 1018.3 |
| 20260502063005 | 50 | 76 | 4.0 | 11.0 | 0.00 | 0.56 | 0.00 | 86 | 1018.1 |
| 20260502061502 | 50 | 42 | 4.0 | 16.0 | 0.00 | 0.56 | 0.00 | 86 | 1018.0 |
| 20260502060002 | 51 | 44 | 6.0 | 14.0 | 0.00 | 0.56 | 0.00 | 85 | 1018.2 |
| 20260502054608 | 51 | 27 | 9.0 | 18.0 | 0.00 | 0.56 | 0.00 | 86 | 1018.2 |
| 20260502053056 | 51 | 355 | 10.0 | 16.0 | 0.00 | 0.56 | 0.00 | 86 | 1018.0 |
| 20260502051554 | 51 | 360 | 10.0 | 16.0 | 0.00 | 0.56 | 0.00 | 86 | 1017.9 |
| 20260502050050 | 51 | 345 | 7.0 | 13.0 | 0.00 | 0.56 | 0.00 | 86 | 1017.9 |
| 20260502044547 | 51 | 355 | 4.0 | 11.0 | 0.00 | 0.59 | 0.56 | 86 | 1017.9 |
| 20260502043046 | 52 | 33 | 8.0 | 15.0 | 0.00 | 0.59 | 0.56 | 86 | 1017.7 |
| 20260502041554 | 52 | 20 | 7.0 | 14.0 | 0.00 | 0.59 | 0.56 | 87 | 1017.2 |
| 20260502040042 | 52 | 44 | 5.0 | 17.0 | 0.00 | 0.59 | 0.56 | 87 | 1017.2 |
| 20260502034539 | 52 | 30 | 10.0 | 16.0 | 0.00 | 0.59 | 0.56 | 86 | 1017.5 |
| 20260502033036 | 52 | 22 | 7.0 | 13.0 | 0.00 | 0.59 | 0.56 | 86 | 1017.4 |
| 20260502031532 | 52 | 23 | 4.0 | 12.0 | 0.00 | 0.59 | 0.56 | 86 | 1017.1 |
| 20260502030030 | 52 | 20 | 8.0 | 15.0 | 0.00 | 0.59 | 0.56 | 85 | 1016.7 |
| 20260502024526 | 52 | 30 | 4.0 | 14.0 | 0.00 | 0.59 | 0.56 | 86 | 1016.5 |
| 20260502023026 | 52 | 355 | 6.0 | 12.0 | 0.00 | 0.59 | 0.56 | 86 | 1016.3 |
| 20260502021521 | 52 | 56 | 4.0 | 16.0 | 0.00 | 0.59 | 0.56 | 85 | 1016.0 |
| 20260502020019 | 53 | 360 | 10.0 | 20.0 | 0.00 | 0.59 | 0.56 | 85 | 1015.8 |
| 20260502014516 | 53 | 19 | 10.0 | 17.0 | 0.00 | 0.59 | 0.56 | 86 | 1015.4 |
| 20260502013010 | 54 | 15 | 8.0 | 21.0 | 0.00 | 0.59 | 0.56 | 85 | 1015.2 |
| 20260502011507 | 54 | 26 | 7.0 | 19.0 | 0.00 | 0.59 | 0.56 | 86 | 1014.7 |
| 20260502010003 | 54 | 19 | 8.0 | 18.0 | 0.00 | 0.59 | 0.56 | 86 | 1014.6 |
| 20260502004600 | 55 | 34 | 7.0 | 18.0 | 0.00 | 0.59 | 0.56 | 86 | 1014.2 |
| 20260502003057 | 55 | 79 | 9.0 | 17.0 | 0.00 | 0.59 | 0.56 | 85 | 1014.0 |
| 20260502001624 | 55 | 25 | 7.0 | 19.0 | 0.00 | 0.59 | 0.56 | 85 | 1013.7 |
| 20260502000106 | 56 | 22 | 14.0 | 23.0 | 0.00 | 0.59 | 0.56 | 84 | 1013.3 |
| 20260501234549 | 56 | 26 | 13.0 | 20.0 | 0.00 | 0.59 | 0.56 | 85 | 1012.8 |
| 20260501233048 | 57 | 41 | 8.0 | 17.0 | 0.00 | 0.59 | 0.56 | 85 | 1012.4 |
| 20260501231545 | 57 | 46 | 7.0 | 23.0 | 0.00 | 0.59 | 0.56 | 84 | 1012.0 |
| 20260501230044 | 58 | 80 | 9.0 | 21.0 | 0.00 | 0.59 | 0.56 | 84 | 1011.6 |
| 20260501224601 | 58 | 40 | 10.0 | 22.0 | 0.00 | 0.59 | 0.56 | 85 | 1011.4 |
| 20260501223040 | 58 | 16 | 8.0 | 21.0 | 0.00 | 0.59 | 0.56 | 85 | 1011.3 |
| 20260501221539 | 58 | 108 | 7.0 | 17.0 | 0.00 | 0.59 | 0.56 | 86 | 1011.4 |
| 20260501220042 | 58 | 42 | 7.0 | 18.0 | 0.00 | 0.59 | 0.56 | 86 | 1011.3 |
| 20260501214536 | 58 | 20 | 4.0 | 12.0 | 0.00 | 0.59 | 0.56 | 87 | 1011.7 |
| 20260501213040 | 58 | 76 | 5.0 | 14.0 | 0.00 | 0.59 | 0.56 | 86 | 1011.8 |
| 20260501211534 | 59 | 15 | 2.0 | 6.0 | 0.00 | 0.59 | 0.56 | 87 | 1011.9 |
| 20260501210033 | 59 | 44 | 3.0 | 9.0 | 0.00 | 0.59 | 0.56 | 87 | 1012.0 |
| 20260501204533 | 59 | 68 | 4.0 | 9.0 | 0.00 | 0.59 | 0.56 | 87 | 1012.3 |
| 20260501203032 | 60 | 198 | 2.0 | 7.0 | 0.00 | 0.59 | 0.56 | 86 | 1012.4 |
| 20260501201532 | 60 | 154 | 3.0 | 8.0 | 0.00 | 0.59 | 0.56 | 86 | 1012.2 |
| 20260501200041 | 60 | 5 | 4.0 | 15.0 | 0.00 | 0.59 | 0.56 | 86 | 1012.2 |
| 20260501194540 | 61 | 265 | 6.0 | 19.0 | 0.00 | 0.59 | 0.56 | 86 | 1012.3 |
| 20260501193034 | 62 | 155 | 3.0 | 9.0 | 0.00 | 0.59 | 0.56 | 85 | 1012.1 |
| 20260501191531 | 63 | 99 | 3.0 | 12.0 | 0.00 | 0.59 | 0.56 | 86 | 1011.7 |
| 20260501190035 | 63 | 53 | 3.0 | 6.0 | 0.00 | 0.59 | 0.56 | 84 | 1011.7 |
| 20260501184526 | 63 | 5 | 3.0 | 12.0 | 0.00 | 0.59 | 0.56 | 86 | 1011.3 |
| 20260501183033 | 62 | 40 | 9.0 | 14.0 | 0.00 | 0.59 | 0.56 | 86 | 1010.8 |
| 20260501181525 | 62 | 105 | 6.0 | 11.0 | 0.02 | 0.59 | 0.56 | 87 | 1010.5 |
| 20260501180024 | 61 | 25 | 8.0 | 13.0 | 0.02 | 0.59 | 0.56 | 88 | 1010.3 |
| 20260501174523 | 60 | 68 | 10.0 | 17.0 | 0.02 | 0.59 | 0.56 | 88 | 1010.0 |
| 20260501173022 | 60 | 46 | 8.0 | 16.0 | 0.03 | 0.59 | 0.56 | 88 | 1010.6 |
| 20260501171522 | 61 | 40 | 2.0 | 11.0 | 0.10 | 0.56 | 0.55 | 88 | 1012.3 |
| 20260501170021 | 61 | 5 | 8.0 | 14.0 | 0.12 | 0.56 | 0.55 | 87 | 1011.2 |
| 20260501164522 | 61 | 55 | 3.0 | 10.0 | 0.13 | 0.56 | 0.55 | 88 | 1011.9 |
| 20260501163022 | 60 | 225 | 1.0 | 2.0 | 0.12 | 0.56 | 0.54 | 87 | 1012.9 |
| 20260501161520 | 60 | 306 | 1.0 | 5.0 | 0.03 | 0.47 | 0.45 | 87 | 1013.0 |
| 20260501160018 | 60 | 46 | 5.0 | 16.0 | 0.01 | 0.45 | 0.43 | 87 | 1011.4 |
| 20260501154517 | 61 | 36 | 4.0 | 13.0 | 0.00 | 0.44 | 0.42 | 87 | 1010.4 |
| 20260501153017 | 60 | 29 | 10.0 | 16.0 | 0.00 | 0.44 | 0.42 | 87 | 1011.2 |